METEOR 2-5 DEB, 35256

Orbit data source: Space-Track

METEOR 2-5 DEB, 35256 is space debris in LEO originally from a launch on Wed, 31 Oct 1979 UTC launched from the Plesetsk Missile And Space Complex (PKMTR). Debris objects in space refer to the collection of defunct objects orbiting the Earth. Examples of debris include non-operational satellites, rocket bodies, and fragments generated from explosions, collisions, or faulty payload assembly.

Loading next visibility...
Identifier
35256, 1979-095X
Orbit
LEO
Country
Flag of CISCIS
Related business
Manufacturer
Unknown
Mission
Spacecraft
Bus & Motor
Unknown
Mass
Unknown
Launch date (UTC)
1979-10-31 (46 years ago)
Launch vehicle
Unknown
Launch site
Plesetsk Missile And Space Complex (PKMTR)
Object type
Payload
Rocket body
Debris
Shape & HBR
Unknown shape, 0.1 m
Radar Cross Section
Small (<0.1 m²)

Expand to show TLE details & history
Last TLE update: 10 hours ago

TLE from 10 hours ago
0 METEOR 2-5 DEB
1 35256U 79095X   25355.14017028  .00003727  00000-0  11060-2 0  9993
2 35256  81.1872 283.5208 0018265  17.0342 343.1456 14.43065254622692
Epoch: 2025-12-21T03:21Z
TLE epoch observation values (Epoch: 2025-12-21T03:21:50.712Z)
Latitude
-0°
Longitude
143.1026°
Altitude
738.873 km
Speed
7.492 km/s
True Right ascension
18h 54m 04s
True Declination
0° 00' 00"
Sunlit
Object was in daylight at epoch
Visualization orbit readout
Latitude
Unknown
Longitude
Unknown
Altitude
Unknown
Speed
Unknown
Apparent Right ascension
Unknown
Apparent Declination
Unknown
Sunlit
N/A
Visualization observer readout
Local Sidereal Time
12:39:18
Azimuth
Unknown
Elevation
Unknown
Doppler factor
Unknown
Orbital elements
Apogee altitude
758.533 km
Perigee altitude
732.51 km
Semi-major axis
7,123.659 km
Eccentricity
0.00183
Inclination
81.1872°
RAAN
283.5208°
Arg. of periapsis
17.0342°
True anomaly
343.08478°
Mean anomaly
343.1456°
Eccentric anomaly
343.1152°
Mean motion
3.60984 °/min
Orbital period
99.73 mins
BSTAR
0.001106
Loading maneuver chart data...
Computing Atmospheric mass density...
Loading historical data...
Loading historical data...
Loading historical data...
Loading historical data...
Loading historical data...
Loading historical data...
Loading historical data...

Documentation

Showing up to 5 results
|